Culdrose, United Kingdom

8:38 PM GMT on December 03, 2016 (GMT +0000)
Culdrose Navy

Weather History for EGDR - August, 2012

Change the Weather History Date:

Friday, August 10, 2012

  Actual Average Record
Temperature  
Mean Temperature 65 °F -  
Max Temperature 71 °F 65 °F 73 °F (2005)
Min Temperature 59 °F 55 °F 46 °F (2011)
Growing Degree Days 15 (Base 50)    
Moisture  
Dew Point 61 °F    
Average Humidity 87    
Maximum Humidity 100    
Minimum Humidity 71    
Precipitation  
Precipitation 0.00 in - - ()
Sea Level Pressure  
Sea Level Pressure 30.23 in    
Wind  
Wind Speed 13 mph ()    
Max Wind Speed 21 mph    
Max Gust Speed 31 mph    
Visibility 6.5 miles    
Events      
Averages and records for this station are not official NWS values.
T = Trace of Precipitation, MM = Missing Value Source: Averaged Metar Reports

Daily Weather History Graph

Daily Weather History Graph

Search for Another Location

Airport or City:

Trip Planner

Search our weather history database for the weather conditions in past years. The results will help you decide how hot, cold, wet, or windy it might be!

Date:

Astronomy

Aug. 10, 2012 Rise Set
Actual Time 6:03 AM BST 8:48 PM BST
Civil Twilight 5:26 AM BST 9:24 PM BST
Nautical Twilight 4:39 AM BST 10:11 PM BST
Astronomical Twilight 3:41 AM BST 11:08 PM BST
Moon No Moon Rise 3:24 PM BST (8/10)
Length of Visible Light 15h 58m
Length of Day
14h 44m
Last Quarter, 44% of the Moon is Illuminated
Aug 10
Last Quarter
Aug 17
New
Aug 24
First Quarter
Aug 31
Full
Sep 8
Last Quarter

Hourly Weather History & Observations

Time (BST) Temp. Dew Point Humidity Pressure Visibility Wind Dir Wind Speed Gust Speed Precip Events Conditions
12:50 AM 60 °F 59 °F 94% 30.31 in 12 mi ENE 8.1 mph - -  
12:50 AM 60.8 °F 59.0 °F 94% 30.30 in - ENE 8.1 mph - N/A   Clear
1:50 AM 59.0 °F 57.2 °F 94% 30.30 in - ENE 9.2 mph - N/A   Clear
2:50 AM 59.0 °F 59.0 °F 100% 30.27 in - East 10.4 mph - N/A   Clear
3:50 AM 60 °F 58 °F 92% 30.28 in 11 mi East 11.5 mph - -   Mist
3:50 AM 59.0 °F 59.0 °F 100% 30.27 in 6.2 mi East 11.5 mph - N/A   Partly Cloudy
4:50 AM 60.8 °F 59.0 °F 94% 30.27 in 6.2 mi East 12.7 mph - N/A   Scattered Clouds
5:50 AM 59.0 °F 59.0 °F 100% 30.27 in 5.0 mi East 12.7 mph - N/A   Scattered Clouds
6:50 AM 61 °F 60 °F 95% 30.28 in 4 mi East 13.8 mph - -   Mist
6:50 AM 60.8 °F 60.8 °F 100% 30.27 in 3.7 mi East 13.8 mph - N/A   Scattered Clouds
7:50 AM 62.6 °F 60.8 °F 94% 30.27 in 3.7 mi East 16.1 mph - N/A   Mostly Cloudy
8:50 AM 64.4 °F 62.6 °F 94% 30.27 in 3.7 mi East 16.1 mph - N/A   Haze
9:50 AM 67 °F 62 °F 81% 30.27 in 5 mi East 20.7 mph - -   Haze
9:50 AM 66.2 °F 62.6 °F 88% 30.24 in 5.0 mi East 20.7 mph - N/A   Haze
10:50 AM 68.0 °F 62.6 °F 83% 30.27 in 6.2 mi East 16.1 mph - N/A   Haze
11:50 AM 68.0 °F 62.6 °F 83% 30.24 in 6.2 mi East 20.7 mph - N/A   Haze
12:50 PM 68 °F 64 °F 81% 30.25 in 6 mi East 16.1 mph - -   Haze
12:50 PM 68.0 °F 64.4 °F 88% 30.24 in 6.2 mi East 16.1 mph 29.9 mph N/A   Haze
1:50 PM 69.8 °F 64.4 °F 83% 30.24 in 6.2 mi East 16.1 mph - N/A   Haze
2:50 PM 69.8 °F 64.4 °F 83% 30.21 in 6.2 mi East 17.3 mph - N/A   Haze
3:50 PM 71 °F 65 °F 74% 30.22 in 9 mi East 18.4 mph - -   Haze
3:50 PM 71.6 °F 64.4 °F 78% 30.21 in 6.2 mi East 18.4 mph - N/A   Haze
4:50 PM 71.6 °F 62.6 °F 73% 30.21 in 6.2 mi East 19.6 mph - N/A   Haze
5:50 PM 71.6 °F 62.6 °F 73% 30.18 in 6.2 mi East 19.6 mph 31.1 mph N/A   Haze
6:50 PM 68 °F 61 °F 71% 30.19 in 9 mi East 20.7 mph - -   Haze
6:50 PM 68.0 °F 60.8 °F 78% 30.18 in 6.2 mi East 20.7 mph - N/A   Haze
7:50 PM 66.2 °F 59.0 °F 78% 30.18 in 6.2 mi East 19.6 mph - N/A   Haze
8:50 PM 62.6 °F 59.0 °F 88% 30.15 in 6.2 mi East 17.3 mph - N/A   Haze
9:50 PM 62 °F 59 °F 87% 30.16 in 11 mi East 16.1 mph - -   Haze
9:50 PM 62.6 °F 59.0 °F 88% 30.15 in 6.2 mi East 16.1 mph - N/A   Haze
10:50 PM 62.6 °F 59.0 °F 88% 30.15 in 6.2 mi East 16.1 mph - N/A   Haze
11:50 PM 60.8 °F 59.0 °F 94% 30.15 in 6.2 mi East 16.1 mph - N/A   Haze